Weather History for Point Mugu, CA

Change the Weather History Date:

Tuesday, January 1, 2013

  Actual Average Record
Temperature  
Mean Temperature 50 °F -  
Max Temperature 62 °F 61 °F 68 °F (2008)
Min Temperature 39 °F 45 °F 37 °F (2015)
Degree Days  
Heating Degree Days 14    
Moisture  
Dew Point 47 °F    
Average Humidity 81    
Maximum Humidity 86    
Minimum Humidity 74    
Precipitation  
Precipitation 0.00 in - - ()
Sea Level Pressure  
Sea Level Pressure 30.18 in    
Wind  
Wind Speed 8 mph (NE)    
Max Wind Speed 21 mph    
Max Gust Speed 30 mph    
Averages and records for this station are not official NWS values.
T = Trace of Precipitation, MM = Missing Value Source: NWS Daily Summary

Daily Weather History Graph

Daily Weather History Graph

Search for Another Location

Airport:

Trip Planner

Search our weather history database for the weather conditions in past years. The results will help you decide how hot, cold, wet, or windy it might be!

Date:

Astronomy

Jan. 01, 2013 Rise Set
Actual Time 7:02 AM PST 4:58 PM PST
Civil Twilight 6:34 AM PST 5:26 PM PST
Nautical Twilight 6:03 AM PST 5:57 PM PST
Astronomical Twilight 5:32 AM PST 6:27 PM PST
Moon 9:21 PM PST (1/1) 9:28 AM PST (1/1)
Length of Visible Light 10h 51m
Length of Day
9h 56m
Waning Gibbous, 82% of the Moon is Illuminated
Jan 1
Waning Gibbous
Jan 4
Last Quarter
Jan 11
New
Jan 18
First Quarter
Jan 26
Full

Hourly Weather History & Observations

Time (PST) Temp. Windchill Dew Point Humidity Pressure Visibility Wind Dir Wind Speed Gust Speed Precip Events Conditions
12:54 AM 42.1 °F 39.2 °F 37.9 °F 85% 30.24 in - North 4.6 mph - N/A   Clear
1:54 AM 42.1 °F 39.2 °F 37.0 °F 82% 30.25 in - North 4.6 mph - N/A   Clear
2:54 AM 42.1 °F 39.2 °F 37.9 °F 85% 30.22 in - NNE 4.6 mph - N/A   Clear
3:54 AM 42.1 °F 38.4 °F 37.0 °F 82% 30.22 in - North 5.8 mph - N/A   Clear
4:54 AM 41.0 °F 38.0 °F 36.0 °F 82% 30.21 in - NNE 4.6 mph - N/A   Clear
5:54 AM 39.9 °F 35.8 °F 36.0 °F 86% 30.22 in - North 5.8 mph - N/A   Clear
6:54 AM 39.9 °F 35.8 °F 35.1 °F 83% 30.22 in - North 5.8 mph - N/A   Scattered Clouds
7:54 AM 43.0 °F 40.3 °F 37.0 °F 80% 30.23 in - North 4.6 mph - N/A   Overcast
8:54 AM 46.0 °F 43.9 °F 39.0 °F 76% 30.24 in - North 4.6 mph - N/A   Overcast
9:54 AM 52.0 °F - 44.1 °F 74% 30.24 in - North 4.6 mph - N/A   Overcast
10:54 AM 59.0 °F - 52.0 °F 78% 30.21 in - NE 12.7 mph 17.3 mph N/A   Overcast
11:54 AM 61.0 °F - 54.0 °F 78% 30.16 in - NE 13.8 mph 20.7 mph N/A   Overcast
12:54 PM 62.1 °F - 55.0 °F 78% 30.13 in - ENE 12.7 mph 18.4 mph N/A   Overcast
1:54 PM 60.1 °F - 55.0 °F 83% 30.13 in - South 8.1 mph - N/A   Overcast
2:54 PM 57.9 °F - 50.0 °F 75% 30.12 in - South 6.9 mph - N/A   Overcast
3:54 PM 60.1 °F - 55.0 °F 83% 30.12 in - ENE 11.5 mph 17.3 mph N/A   Overcast
4:54 PM 60.1 °F - 54.0 °F 80% 30.12 in - NE 10.4 mph 23.0 mph N/A   Overcast
5:54 PM 59.0 °F - 54.0 °F 83% 30.13 in - NE 13.8 mph 20.7 mph N/A   Overcast
6:54 PM 57.9 °F - 53.1 °F 84% 30.14 in - ENE 16.1 mph 23.0 mph N/A   Clear
7:54 PM 59.0 °F - 53.1 °F 81% 30.15 in - ENE 16.1 mph 24.2 mph N/A   Clear
8:54 PM 57.0 °F - 52.0 °F 83% 30.16 in - ENE 15.0 mph 28.8 mph N/A   Clear
9:54 PM 57.9 °F - 52.0 °F 81% 30.17 in - ENE 16.1 mph 25.3 mph N/A   Clear
10:54 PM 57.9 °F - 53.1 °F 84% 30.16 in - ENE 20.7 mph 29.9 mph N/A   Clear
11:54 PM 57.0 °F - 52.0 °F 83% 30.15 in - ENE 13.8 mph 23.0 mph N/A   Clear